| time (UTC) | temp F | wind direction | speed MPH | gust MPH | rain 1hr in | rain 24hr in | rain mn in | humidity % | barometer mb |
| 20260507001544 | 55 | 33 | 0.0 | 2.0 | 0.00 | 0.76 | 0.76 | 91 | 1011.5 |
| 20260507001042 | 56 | 64 | 3.0 | 3.0 | 0.00 | 0.76 | 0.76 | 91 | 1011.5 |
| 20260507000538 | 56 | 53 | 2.0 | 2.0 | 0.00 | 0.76 | 0.76 | 91 | 1011.8 |
| 20260507000033 | 56 | 52 | 1.0 | 2.0 | 0.02 | 0.76 | 0.76 | 91 | 1011.6 |
| 20260506235531 | 56 | 40 | 2.0 | 3.0 | 0.02 | 0.76 | 0.76 | 91 | 1011.8 |
| 20260506235027 | 56 | 51 | 2.0 | 2.0 | 0.00 | 0.76 | 0.76 | 91 | 1012.0 |
| 20260506234525 | 56 | 63 | 2.0 | 3.0 | 0.00 | 0.76 | 0.76 | 91 | 1011.9 |
| 20260506234022 | 56 | 66 | 2.0 | 3.0 | 0.02 | 0.76 | 0.76 | 91 | 1012.2 |
| 20260506233518 | 57 | 61 | 2.0 | 2.0 | 0.02 | 0.76 | 0.76 | 91 | 1012.9 |
| 20260506233015 | 57 | 20 | 0.0 | 3.0 | 0.00 | 0.76 | 0.76 | 91 | 1012.7 |
| 20260506232511 | 57 | 1 | 3.0 | 3.0 | 0.00 | 0.76 | 0.76 | 93 | 1012.9 |
| 20260506232007 | 57 | 39 | 2.0 | 2.0 | 0.05 | 0.76 | 0.76 | 93 | 1012.7 |
| 20260506231505 | 57 | 311 | 0.0 | 2.0 | 0.14 | 0.76 | 0.76 | 93 | 1012.6 |
| 20260506231002 | 58 | 65 | 1.0 | 2.0 | 0.09 | 0.74 | 0.74 | 92 | 1012.4 |
| 20260506230458 | 58 | 68 | 1.0 | 2.0 | 0.07 | 0.73 | 0.73 | 91 | 1012.6 |
| 20260506225955 | 58 | 48 | 2.0 | 3.0 | 0.05 | 0.72 | 0.72 | 90 | 1012.7 |
| 20260506225452 | 58 | 50 | 2.0 | 2.0 | 0.05 | 0.72 | 0.72 | 89 | 1013.5 |
| 20260506224949 | 58 | 49 | 2.0 | 2.0 | 0.02 | 0.72 | 0.72 | 87 | 1013.4 |
| 20260506224446 | 58 | 69 | 1.0 | 2.0 | 0.00 | 0.71 | 0.71 | 87 | 1013.1 |
| 20260506223942 | 59 | 76 | 2.0 | 2.0 | 0.00 | 0.71 | 0.71 | 87 | 1013.0 |
| 20260506223438 | 59 | 82 | 2.0 | 2.0 | 0.00 | 0.71 | 0.71 | 86 | 1013.0 |
| 20260506222936 | 59 | 44 | 2.0 | 2.0 | 0.00 | 0.71 | 0.71 | 87 | 1013.0 |
| 20260506222432 | 59 | 77 | 1.0 | 2.0 | 0.00 | 0.71 | 0.71 | 86 | 1012.9 |
| 20260506221929 | 59 | 66 | 0.0 | 2.0 | 0.00 | 0.71 | 0.71 | 86 | 1013.0 |
| 20260506221426 | 59 | 92 | 1.0 | 2.0 | 0.00 | 0.71 | 0.71 | 87 | 1012.7 |
| 20260506220924 | 59 | 53 | 2.0 | 2.0 | 0.00 | 0.71 | 0.71 | 87 | 1012.8 |
| 20260506220419 | 59 | 107 | 2.0 | 2.0 | 0.00 | 0.71 | 0.71 | 87 | 1013.0 |
| 20260506215916 | 59 | 55 | 2.0 | 2.0 | 0.00 | 0.71 | 0.71 | 87 | 1012.7 |
| 20260506215412 | 59 | 31 | 0.0 | 2.0 | 0.00 | 0.71 | 0.71 | 88 | 1012.9 |
| 20260506214908 | 58 | 5 | 0.0 | 1.0 | 0.00 | 0.71 | 0.71 | 87 | 1012.4 |
| 20260506214405 | 58 | 88 | 1.0 | 2.0 | 0.00 | 0.71 | 0.71 | 86 | 1012.5 |
| 20260506213902 | 58 | 100 | 1.0 | 2.0 | 0.00 | 0.71 | 0.71 | 86 | 1012.6 |
| 20260506213400 | 58 | 70 | 1.0 | 2.0 | 0.00 | 0.71 | 0.71 | 87 | 1012.4 |
| 20260506212857 | 58 | 106 | 2.0 | 2.0 | 0.00 | 0.71 | 0.71 | 86 | 1012.1 |
| 20260506212353 | 58 | 89 | 1.0 | 2.0 | 0.00 | 0.71 | 0.71 | 87 | 1012.0 |
| 20260506211848 | 58 | 58 | 2.0 | 3.0 | 0.00 | 0.71 | 0.71 | 86 | 1012.1 |
| 20260506211344 | 58 | 88 | 2.0 | 2.0 | 0.00 | 0.71 | 0.71 | 86 | 1012.0 |
| 20260506210842 | 58 | 50 | 2.0 | 2.0 | 0.00 | 0.71 | 0.71 | 86 | 1012.2 |
| 20260506210338 | 58 | 60 | 2.0 | 2.0 | 0.00 | 0.71 | 0.71 | 87 | 1012.0 |
| 20260506205836 | 58 | 349 | 1.0 | 1.0 | 0.00 | 0.71 | 0.71 | 88 | 1012.4 |
| 20260506205331 | 58 | 323 | 2.0 | 3.0 | 0.00 | 0.71 | 0.71 | 87 | 1012.2 |
| 20260506204828 | 58 | 48 | 0.0 | 2.0 | 0.00 | 0.71 | 0.71 | 85 | 1012.0 |
| 20260506204326 | 58 | 69 | 2.0 | 2.0 | 0.00 | 0.71 | 0.71 | 86 | 1012.3 |
| 20260506203823 | 58 | 57 | 2.0 | 2.0 | 0.00 | 0.71 | 0.71 | 86 | 1012.4 |
| 20260506203320 | 58 | 65 | 1.0 | 2.0 | 0.00 | 0.71 | 0.71 | 86 | 1012.5 |
| 20260506202817 | 58 | 290 | 0.0 | 2.0 | 0.00 | 0.71 | 0.71 | 86 | 1012.5 |
| 20260506202314 | 58 | 337 | 1.0 | 2.0 | 0.00 | 0.71 | 0.71 | 86 | 1012.2 |
| 20260506201810 | 58 | 85 | 2.0 | 2.0 | 0.00 | 0.71 | 0.71 | 85 | 1012.4 |
| 20260506201308 | 58 | 83 | 1.0 | 2.0 | 0.00 | 0.71 | 0.71 | 86 | 1012.2 |
| 20260506200805 | 58 | 84 | 2.0 | 4.0 | 0.00 | 0.71 | 0.71 | 86 | 1012.6 |
| 20260506200301 | 57 | 315 | 0.0 | 2.0 | 0.00 | 0.71 | 0.71 | 87 | 1012.4 |
| 20260506195757 | 57 | 315 | 0.0 | 2.0 | 0.00 | 0.71 | 0.71 | 87 | 1012.4 |
| 20260506195254 | 57 | 95 | 1.0 | 2.0 | 0.00 | 0.71 | 0.71 | 88 | 1012.5 |
| 20260506194751 | 57 | 63 | 1.0 | 3.0 | 0.00 | 0.71 | 0.71 | 87 | 1012.2 |
| 20260506194248 | 57 | 343 | 2.0 | 4.0 | 0.00 | 0.71 | 0.71 | 89 | 1012.0 |
| 20260506193746 | 57 | 3 | 2.0 | 2.0 | 0.00 | 0.71 | 0.71 | 89 | 1012.3 |
| 20260506193242 | 57 | 339 | 2.0 | 4.0 | 0.00 | 0.71 | 0.71 | 88 | 1011.9 |
| 20260506192738 | 57 | 69 | 2.0 | 2.0 | 0.00 | 0.71 | 0.71 | 88 | 1012.5 |
| 20260506192235 | 57 | 331 | 1.0 | 2.0 | 0.00 | 0.71 | 0.71 | 89 | 1012.8 |
| 20260506191732 | 57 | 57 | 2.0 | 3.0 | 0.00 | 0.71 | 0.71 | 89 | 1012.5 |
| 20260506191228 | 57 | 95 | 2.0 | 3.0 | 0.00 | 0.71 | 0.71 | 90 | 1012.4 |
| 20260506190726 | 56 | 76 | 0.0 | 3.0 | 0.00 | 0.71 | 0.71 | 90 | 1012.1 |
| 20260506190222 | 56 | 30 | 1.0 | 3.0 | 0.00 | 0.71 | 0.71 | 91 | 1012.3 |
| 20260506185719 | 56 | 85 | 1.0 | 2.0 | 0.00 | 0.71 | 0.71 | 91 | 1012.9 |
| 20260506185215 | 55 | 28 | 1.0 | 2.0 | 0.00 | 0.71 | 0.71 | 91 | 1013.3 |
| 20260506184713 | 55 | 6 | 2.0 | 2.0 | 0.00 | 0.71 | 0.71 | 92 | 1013.3 |
| 20260506184210 | 55 | 308 | 1.0 | 2.0 | 0.00 | 0.71 | 0.71 | 92 | 1013.2 |
| 20260506183707 | 55 | 211 | 0.0 | 2.0 | 0.00 | 0.71 | 0.71 | 91 | 1013.1 |
| 20260506183203 | 55 | 7 | 2.0 | 3.0 | 0.00 | 0.71 | 0.71 | 91 | 1013.3 |
| 20260506182700 | 55 | 31 | 2.0 | 2.0 | 0.00 | 0.71 | 0.71 | 91 | 1012.9 |
| 20260506182157 | 55 | 264 | 2.0 | 2.0 | 0.00 | 0.71 | 0.71 | 91 | 1013.0 |
| 20260506181655 | 55 | 22 | 1.0 | 2.0 | 0.00 | 0.71 | 0.71 | 90 | 1012.9 |
| 20260506181152 | 55 | 54 | 2.0 | 2.0 | 0.00 | 0.71 | 0.71 | 91 | 1013.0 |
| 20260506180649 | 55 | 71 | 1.0 | 2.0 | 0.00 | 0.71 | 0.71 | 90 | 1012.9 |
| 20260506180145 | 55 | 353 | 1.0 | 1.0 | 0.00 | 0.71 | 0.71 | 90 | 1012.7 |
| 20260506175642 | 55 | 338 | 0.0 | 2.0 | 0.00 | 0.71 | 0.71 | 91 | 1012.6 |
| 20260506175139 | 55 | 63 | 2.0 | 3.0 | 0.00 | 0.71 | 0.71 | 91 | 1012.6 |
| 20260506174637 | 55 | 107 | 2.0 | 3.0 | 0.00 | 0.71 | 0.71 | 91 | 1012.5 |
| 20260506174134 | 55 | 55 | 0.0 | 3.0 | 0.00 | 0.71 | 0.71 | 92 | 1012.4 |
| 20260506173631 | 54 | 34 | 2.0 | 2.0 | 0.00 | 0.71 | 0.71 | 92 | 1012.3 |
| 20260506173128 | 54 | 18 | 2.0 | 3.0 | 0.00 | 0.71 | 0.71 | 92 | 1012.1 |
| 20260506172625 | 54 | 64 | 3.0 | 4.0 | 0.00 | 0.71 | 0.71 | 93 | 1012.2 |
| 20260506172121 | 54 | 348 | 3.0 | 4.0 | 0.00 | 0.71 | 0.71 | 93 | 1012.1 |
| 20260506171619 | 55 | 60 | 3.0 | 3.0 | 0.00 | 0.71 | 0.71 | 94 | 1012.3 |
| 20260506171117 | 55 | 24 | 2.0 | 2.0 | 0.00 | 0.71 | 0.71 | 94 | 1012.4 |
| 20260506170615 | 55 | 44 | 0.0 | 3.0 | 0.00 | 0.71 | 0.71 | 94 | 1012.6 |
| 20260506170111 | 54 | 343 | 1.0 | 3.0 | 0.00 | 0.71 | 0.71 | 93 | 1012.3 |
| 20260506165609 | 55 | 22 | 2.0 | 4.0 | 0.00 | 0.71 | 0.71 | 94 | 1012.4 |
| 20260506165105 | 55 | 43 | 4.0 | 4.0 | 0.00 | 0.71 | 0.71 | 94 | 1012.4 |
| 20260506164603 | 54 | 59 | 4.0 | 4.0 | 0.00 | 0.71 | 0.71 | 94 | 1012.3 |
| 20260506164100 | 54 | 23 | 2.0 | 3.0 | 0.00 | 0.71 | 0.71 | 94 | 1012.5 |
| 20260506163555 | 54 | 17 | 2.0 | 3.0 | 0.00 | 0.71 | 0.71 | 93 | 1012.3 |
| 20260506163051 | 54 | 345 | 1.0 | 2.0 | 0.00 | 0.71 | 0.71 | 93 | 1012.4 |
| 20260506162548 | 54 | 330 | 1.0 | 2.0 | 0.00 | 0.71 | 0.71 | 93 | 1012.5 |
| 20260506162045 | 55 | 31 | 0.0 | 2.0 | 0.00 | 0.71 | 0.71 | 93 | 1012.4 |
| 20260506161542 | 55 | 353 | 2.0 | 2.0 | 0.00 | 0.71 | 0.71 | 92 | 1012.4 |
| 20260506161039 | 54 | 41 | 2.0 | 2.0 | 0.00 | 0.71 | 0.71 | 92 | 1012.2 |
| 20260506160537 | 54 | 13 | 1.0 | 2.0 | 0.00 | 0.71 | 0.71 | 94 | 1012.4 |
| 20260506160034 | 54 | 22 | 1.0 | 3.0 | 0.00 | 0.71 | 0.71 | 93 | 1012.4 |
| 20260506155532 | 54 | 6 | 2.0 | 3.0 | 0.00 | 0.71 | 0.71 | 94 | 1012.2 |
| 20260506153703 | 55 | 336 | 1.0 | 3.0 | 0.00 | 0.71 | 0.71 | 94 | 1012.3 |
| 20260506153201 | 54 | 56 | 3.0 | 3.0 | 0.00 | 0.71 | 0.71 | 94 | 1012.3 |
| 20260506152657 | 54 | 16 | 2.0 | 4.0 | 0.00 | 0.71 | 0.71 | 94 | 1012.4 |
| 20260506152155 | 54 | 15 | 1.0 | 4.0 | 0.00 | 0.71 | 0.71 | 94 | 1012.2 |
| 20260506151654 | 54 | 51 | 2.0 | 2.0 | 0.00 | 0.71 | 0.71 | 94 | 1012.2 |
| 20260506151150 | 55 | 29 | 0.0 | 2.0 | 0.00 | 0.71 | 0.71 | 93 | 1012.3 |
| 20260506150647 | 55 | 81 | 0.0 | 2.0 | 0.00 | 0.71 | 0.71 | 94 | 1012.0 |
| 20260506150144 | 54 | 12 | 1.0 | 2.0 | 0.00 | 0.71 | 0.71 | 93 | 1011.9 |
| 20260506145641 | 54 | 16 | 0.0 | 1.0 | 0.00 | 0.71 | 0.71 | 93 | 1012.1 |
| 20260506145137 | 54 | 344 | 3.0 | 4.0 | 0.00 | 0.71 | 0.71 | 93 | 1011.9 |
| 20260506144635 | 54 | 0 | 0.0 | 2.0 | 0.00 | 0.71 | 0.71 | 93 | 1011.9 |
| 20260506144131 | 54 | 5 | 2.0 | 3.0 | 0.00 | 0.71 | 0.71 | 94 | 1011.7 |
| 20260506143629 | 54 | 46 | 2.0 | 4.0 | 0.00 | 0.71 | 0.71 | 94 | 1011.8 |
| 20260506143127 | 54 | 34 | 2.0 | 4.0 | 0.00 | 0.71 | 0.71 | 94 | 1011.6 |
| 20260506142625 | 54 | 9 | 1.0 | 2.0 | 0.00 | 0.71 | 0.71 | 94 | 1011.6 |
| 20260506142123 | 54 | 24 | 1.0 | 2.0 | 0.00 | 0.71 | 0.71 | 95 | 1011.5 |
| 20260506141620 | 54 | 53 | 3.0 | 4.0 | 0.00 | 0.71 | 0.71 | 94 | 1011.2 |
| 20260506141119 | 54 | 32 | 2.0 | 4.0 | 0.00 | 0.71 | 0.71 | 95 | 1010.8 |
| 20260506140616 | 54 | 343 | 2.0 | 2.0 | 0.00 | 0.71 | 0.71 | 95 | 1010.6 |
| 20260506140113 | 54 | 336 | 0.0 | 2.0 | 0.00 | 0.71 | 0.71 | 95 | 1010.8 |
| 20260506135610 | 54 | 18 | 0.0 | 4.0 | 0.00 | 0.71 | 0.71 | 95 | 1010.7 |
| 20260506135106 | 54 | 62 | 0.0 | 2.0 | 0.00 | 0.71 | 0.71 | 95 | 1010.5 |
| 20260506134602 | 54 | 44 | 2.0 | 3.0 | 0.00 | 0.71 | 0.71 | 95 | 1010.2 |
| 20260506134058 | 54 | 348 | 1.0 | 2.0 | 0.00 | 0.71 | 0.71 | 96 | 1010.2 |
| 20260506133555 | 53 | 30 | 2.0 | 3.0 | 0.00 | 0.71 | 0.71 | 95 | 1010.0 |
| 20260506133053 | 54 | 355 | 3.0 | 3.0 | 0.02 | 0.71 | 0.71 | 95 | 1010.1 |
| 20260506132550 | 54 | 355 | 3.0 | 3.0 | 0.02 | 0.71 | 0.71 | 95 | 1010.1 |
| 20260506132047 | 53 | 41 | 1.0 | 2.0 | 0.00 | 0.71 | 0.71 | 95 | 1009.9 |
| 20260506131544 | 53 | 23 | 1.0 | 3.0 | 0.02 | 0.71 | 0.71 | 95 | 1009.3 |
| 20260506131040 | 53 | 50 | 2.0 | 3.0 | 0.05 | 0.70 | 0.70 | 95 | 1009.7 |
| 20260506130537 | 53 | 34 | 0.0 | 3.0 | 0.07 | 0.70 | 0.70 | 95 | 1010.6 |
| 20260506130035 | 53 | 48 | 1.0 | 3.0 | 0.09 | 0.70 | 0.70 | 95 | 1010.5 |
| 20260506125533 | 54 | 91 | 1.0 | 2.0 | 0.05 | 0.69 | 0.69 | 95 | 1011.0 |
| 20260506125031 | 54 | 47 | 2.0 | 2.0 | 0.05 | 0.68 | 0.68 | 95 | 1011.1 |
| 20260506124528 | 54 | 85 | 1.0 | 2.0 | 0.02 | 0.68 | 0.68 | 95 | 1011.1 |
| 20260506124026 | 54 | 313 | 1.0 | 2.0 | 0.02 | 0.67 | 0.67 | 95 | 1011.0 |
| 20260506123523 | 54 | 265 | 1.0 | 3.0 | 0.02 | 0.67 | 0.67 | 95 | 1011.0 |
| 20260506123021 | 54 | 341 | 0.0 | 2.0 | 0.00 | 0.67 | 0.67 | 95 | 1010.7 |
| 20260506122518 | 54 | 4 | 1.0 | 2.0 | 0.02 | 0.67 | 0.67 | 95 | 1010.5 |
| 20260506122016 | 54 | 29 | 1.0 | 4.0 | 0.02 | 0.67 | 0.67 | 95 | 1010.3 |
| 20260506121513 | 54 | 41 | 2.0 | 3.0 | 0.00 | 0.67 | 0.67 | 95 | 1010.3 |
| 20260506121009 | 54 | 76 | 0.0 | 3.0 | 0.00 | 0.67 | 0.67 | 95 | 1010.3 |
| 20260506120508 | 54 | 28 | 0.0 | 4.0 | 0.02 | 0.67 | 0.67 | 95 | 1010.2 |
| 20260506120005 | 54 | 55 | 3.0 | 4.0 | 0.02 | 0.67 | 0.67 | 95 | 1009.8 |
| 20260506115502 | 54 | 22 | 2.0 | 3.0 | 0.00 | 0.66 | 0.66 | 95 | 1009.7 |
| 20260506115001 | 54 | 289 | 1.0 | 3.0 | 0.00 | 0.66 | 0.66 | 96 | 1009.9 |
| 20260506114457 | 54 | 277 | 2.0 | 3.0 | 0.00 | 0.66 | 0.66 | 96 | 1009.7 |
| 20260506113956 | 54 | 305 | 3.0 | 4.0 | 0.00 | 0.66 | 0.66 | 96 | 1009.4 |
| 20260506113453 | 54 | 272 | 2.0 | 4.0 | 0.00 | 0.66 | 0.66 | 96 | 1009.4 |
| 20260506112950 | 54 | 91 | 4.0 | 4.0 | 0.00 | 0.66 | 0.66 | 96 | 1009.3 |
| 20260506112447 | 54 | 286 | 2.0 | 4.0 | 0.00 | 0.66 | 0.66 | 96 | 1009.7 |
| 20260506111944 | 54 | 287 | 2.0 | 2.0 | 0.00 | 0.66 | 0.66 | 96 | 1009.0 |
| 20260506111443 | 54 | 65 | 0.0 | 2.0 | 0.00 | 0.66 | 0.66 | 96 | 1008.0 |
| 20260506110939 | 54 | 30 | 1.0 | 3.0 | 0.00 | 0.66 | 0.66 | 95 | 1008.0 |
| 20260506110437 | 54 | 87 | 2.0 | 4.0 | 0.09 | 0.66 | 0.66 | 95 | 1007.9 |
| 20260506105933 | 54 | 304 | 0.0 | 3.0 | 0.12 | 0.66 | 0.66 | 95 | 1008.5 |
| 20260506105430 | 54 | 9 | 2.0 | 2.0 | 0.09 | 0.65 | 0.65 | 95 | 1008.5 |
| 20260506104927 | 54 | 57 | 2.0 | 2.0 | 0.33 | 0.64 | 0.64 | 95 | 1008.2 |
| 20260506104425 | 54 | 25 | 0.0 | 3.0 | 0.35 | 0.63 | 0.63 | 95 | 1008.4 |
| 20260506103923 | 54 | 65 | 0.0 | 4.0 | 0.19 | 0.59 | 0.59 | 94 | 1008.7 |
| 20260506103420 | 55 | 49 | 0.0 | 2.0 | 0.17 | 0.57 | 0.57 | 94 | 1008.9 |
| 20260506102917 | 55 | 10 | 1.0 | 2.0 | 0.14 | 0.56 | 0.56 | 94 | 1008.5 |
| 20260506102415 | 55 | 80 | 1.0 | 2.0 | 0.05 | 0.54 | 0.54 | 94 | 1008.8 |
| 20260506073513 | 73 | 258 | 2.0 | 6.0 | 0.00 | 0.00 | 0.00 | 70 | 1005.0 |
| 20260506073010 | 73 | 180 | 1.0 | 9.0 | 0.00 | 0.00 | 0.00 | 70 | 1004.4 |
| 20260506072507 | 73 | 221 | 3.0 | 10.0 | 0.00 | 0.00 | 0.00 | 69 | 1004.7 |
| 20260506072004 | 73 | 122 | 2.0 | 5.0 | 0.00 | 0.00 | 0.00 | 68 | 1004.4 |
| 20260506071502 | 73 | 353 | 3.0 | 4.0 | 0.00 | 0.00 | 0.00 | 68 | 1004.5 |
| 20260506070959 | 73 | 227 | 3.0 | 7.0 | 0.00 | 0.00 | 0.00 | 69 | 1004.6 |
| 20260506070456 | 73 | 147 | 4.0 | 7.0 | 0.00 | 0.00 | 0.00 | 68 | 1004.7 |
| 20260506062433 | 72 | 121 | 6.0 | 11.0 | 0.00 | 0.00 | 0.00 | 67 | 1004.9 |
| 20260506061929 | 72 | 184 | 2.0 | 9.0 | 0.00 | 0.00 | 0.00 | 67 | 1005.0 |
| 20260506061426 | 72 | 192 | 1.0 | 3.0 | 0.00 | 0.00 | 0.00 | 67 | 1005.2 |
| 20260506060924 | 72 | 160 | 3.0 | 9.0 | 0.00 | 0.00 | 0.00 | 67 | 1005.1 |
| 20260506060422 | 72 | 104 | 2.0 | 8.0 | 0.00 | 0.00 | 0.00 | 67 | 1005.2 |
| 20260506051354 | 71 | 116 | 0.0 | 11.0 | 0.00 | 0.00 | 0.00 | 66 | 1006.0 |
| 20260506050851 | 71 | 95 | 0.0 | 11.0 | 0.00 | 0.00 | 0.00 | 66 | 1006.1 |
| 20260506050349 | 71 | 98 | 3.0 | 10.0 | 0.00 | 0.00 | 0.00 | 66 | 1005.9 |
| 20260506044839 | 71 | 141 | 0.0 | 6.0 | 0.00 | 0.07 | 0.07 | 66 | 1006.0 |
| 20260506044337 | 71 | 126 | 4.0 | 10.0 | 0.00 | 0.07 | 0.07 | 66 | 1005.9 |
| 20260506043833 | 71 | 213 | 2.0 | 8.0 | 0.00 | 0.07 | 0.07 | 66 | 1006.2 |
| 20260506043331 | 71 | 145 | 2.0 | 18.0 | 0.00 | 0.07 | 0.07 | 66 | 1006.1 |
| 20260506042829 | 71 | 145 | 11.0 | 12.0 | 0.00 | 0.07 | 0.07 | 66 | 1006.2 |
| 20260506042328 | 71 | 126 | 1.0 | 9.0 | 0.00 | 0.07 | 0.07 | 68 | 1006.4 |
| 20260506041826 | 71 | 238 | 1.0 | 6.0 | 0.00 | 0.07 | 0.07 | 68 | 1006.4 |
| 20260506041323 | 71 | 119 | 0.0 | 6.0 | 0.00 | 0.07 | 0.07 | 66 | 1006.4 |
| 20260506040820 | 71 | 151 | 2.0 | 6.0 | 0.00 | 0.07 | 0.07 | 67 | 1006.4 |
| 20260506040317 | 71 | 100 | 6.0 | 7.0 | 0.00 | 0.07 | 0.07 | 66 | 1006.3 |
| 20260506035814 | 71 | 206 | 2.0 | 13.0 | 0.00 | 0.07 | 0.07 | 67 | 1006.3 |
| 20260506035311 | 71 | 145 | 5.0 | 9.0 | 0.00 | 0.07 | 0.07 | 67 | 1006.4 |
| 20260506034808 | 71 | 294 | 2.0 | 6.0 | 0.00 | 0.07 | 0.07 | 68 | 1006.6 |
| 20260506034305 | 71 | 334 | 1.0 | 6.0 | 0.00 | 0.07 | 0.07 | 68 | 1006.7 |
| 20260506033802 | 71 | 123 | 1.0 | 16.0 | 0.00 | 0.07 | 0.07 | 67 | 1006.5 |
| 20260506033259 | 71 | 154 | 2.0 | 9.0 | 0.00 | 0.07 | 0.07 | 68 | 1006.6 |
| 20260506032756 | 70 | 214 | 4.0 | 7.0 | 0.00 | 0.07 | 0.07 | 69 | 1006.7 |
| 20260506032253 | 70 | 184 | 2.0 | 13.0 | 0.00 | 0.07 | 0.07 | 68 | 1006.6 |
| 20260506031749 | 70 | 340 | 1.0 | 11.0 | 0.00 | 0.07 | 0.07 | 68 | 1006.8 |
| 20260506031247 | 70 | 190 | 4.0 | 5.0 | 0.00 | 0.07 | 0.07 | 68 | 1007.0 |
| 20260506030745 | 70 | 117 | 2.0 | 7.0 | 0.00 | 0.07 | 0.07 | 67 | 1006.6 |
| 20260506030243 | 70 | 181 | 2.0 | 8.0 | 0.00 | 0.07 | 0.07 | 68 | 1006.7 |
| 20260506025739 | 70 | 106 | 2.0 | 3.0 | 0.00 | 0.07 | 0.07 | 70 | 1006.6 |
| 20260506025235 | 69 | 326 | 0.0 | 3.0 | 0.00 | 0.07 | 0.07 | 70 | 1006.7 |
| 20260506024732 | 69 | 163 | 1.0 | 9.0 | 0.00 | 0.07 | 0.07 | 70 | 1006.6 |
| 20260506024229 | 69 | 109 | 2.0 | 4.0 | 0.00 | 0.07 | 0.07 | 71 | 1006.7 |
| 20260506023725 | 69 | 80 | 2.0 | 5.0 | 0.00 | 0.07 | 0.07 | 72 | 1006.5 |
| 20260506023223 | 68 | 145 | 0.0 | 5.0 | 0.00 | 0.07 | 0.07 | 73 | 1006.5 |
| 20260506022719 | 68 | 36 | 2.0 | 4.0 | 0.00 | 0.07 | 0.07 | 74 | 1006.5 |
| 20260506022217 | 68 | 124 | 3.0 | 7.0 | 0.00 | 0.07 | 0.07 | 74 | 1006.7 |
| 20260506021715 | 67 | 125 | 0.0 | 11.0 | 0.00 | 0.07 | 0.07 | 75 | 1006.7 |
| 20260506021212 | 67 | 104 | 2.0 | 6.0 | 0.00 | 0.07 | 0.07 | 78 | 1006.6 |
| 20260506020708 | 66 | 120 | 2.0 | 4.0 | 0.00 | 0.07 | 0.07 | 80 | 1006.6 |
| 20260506002258 | 71 | 290 | 0.0 | 6.0 | 0.00 | 0.01 | 0.01 | 59 | 1006.9 |